SCP
0 0 0 0 0 0 0 0 0 0 0 0 0 0 0 0 0 0 0 0 0 0 0 0 0 0 0 0 0 0 0 0 0 0 0 0 0 0
0 0 0 0 0 0 0 0 0 0 0 0 0 0 0 0 0 0 0 0 0 0 0 0 0 0 0 0 0 0 0 0 0 0 0 0 0 0
0 0 0 0 0 0 0 0 0 0 0 0 0 0 0 0 0 0 0 0 0 0 0 0 0 0 0 0 0 0 0 0 0 0 0 0 0 0
0 0 0 0 0 0 0 0 0 0 0 0 0 0 0 0 0 0 0 0 0 0 0 0 0 0 0 0 0 0 0 0 0 0 0 0 0 0
0 0 0 0 0 0 0 0 0 0 0 0 0 0 0 0 0 0 0 0 0 0 0 0 0 0 0 0 0 0 0 0 0 0 0 0 0 0
0 0 0 0 0 0 0 0 0 0 0 0 0 0 0 0 0 0 0 0 0 0 0 0 0 0 0 0 0 0 0 0 0 0 0 0 0 0
0 0 0 0 0 0 0 0 0 0 0 0 0 0 0 0 0 0 0 0 0 0 0 0 0 0 0 0 0 0 0 0 0 0 0 0 0 0
0 0 0 0 0 0 0 0 0 0 0 0 0 0 0 0 0 0 0 0 0 0 0 0 0 0 0 0 0 0 0 0 0 0 0 0 0 0
0 0 0 0 0 0 0 0 0 0 0 0 0 0 0 0 0 0 0 0 0 0 0 0 0 0 0 0 0 0 0 0 0 0 0 0 0 0
0 0 0 0 0 0 0 0 0 0 0 0 0 0 0 0 0 0 0 0 0 0 0 0 0 0 0 0 0 0 0 0 0 0 0 0 0 0
0 0 0 0 0 0 0 0 0 0 0 0 0 0 0 0 0 0 0 0 0 0 0 0 0 0 0 0 0 0 0 0 0 0 0 0 0 0
0 0 0 0 0 0 0 0 0 0 0 0 0 0 0 0 0 0 0 0 0 0 0 0 0 0 0 0 0 0 0 0 0 0 0 0 0 0
0 0 0 0 0 0 0 0 0 0 0 0 0 0 0 0 0 0 0 0 0 0 0 0 0 0 0 0 0 0 0 0 0 0 0 0 0 0
0 0 0 0 0 0 0 0 0 0 0 0 0 0 0 0 0 0 0 0 0 0 0 0 0 0 0 0 0 0 0 0 0 0 0 0 0 0
0 0 0 0 0 0 0 0 0 0 0 0 0 0 0 0 0 0 0 0 0 0 0 0 0 0 0 0 0 0 0 0 0 0 0 0 0 0
0 0 0 0 0 0 0 0 0 0 0 0 0 0 0 0 0 0 0 0 0 0 0 0 0 0 0 0 0 0 0 0 0 0 0 0 0 0
0 0 0 0 0 0 0 0 0 0 0 0 0 0 0 0 0 0 0 0 0 0 0 0 0 0 0 0 0 0 0 0 0 0 0 0 0 0
0 0 0 0 0 0 0 0 0 0 0 0 0 0 0 0 0 0 0 0 0 0 0 0 0 0 0 0 0 0 0 0 0 0 0 0 0 0
0 0 0 0 0 0 0 0 0 0 0 0 0 0 0 0 0 0 0 0 0 0 0 0 0 0 0 0 0 0 0 0 0 0 0 0 0 0
0 0 0 0 0 0 0 0 0 0 0 0 0 0 0 0 0 0 0 0 0 0 0 0 0 0 0 0 0 0 0 0 0 0 0 0 0 0
0 0 0 0 0 0 0 0 0 0 0 0 0 0 0 0 0 0 0 0 0 0 0 0 0 0 0 0 0 0 0 0 0 0 0 0 0 0
0 0 0 0 0 0 0 0 0 0 0 0 0 0 0 0 0 0 0 0 0 0 0 0 0 0 0 0 0 0 0 0 0 0 0 0 0 0
0 0 0 0 0 0 0 0 0 0 0 0 0 0 0 0 0 0 0 0 0 0 0 0 0 0 0 0 0 0 0 0 0 0 0 0 0 0
Wind_Speed
5 5 5 4 4 4 4 5 5 6 6 4 4 3 3 3 2 5 5 4 5 5 6 6 6 7 7 8 8 8 8 9 9 9 10 10 10 11
4 4 5 4 4 4 4 4 5 6 6 5 5 4 4 5 4 6 5 4 7 7 7 6 7 7 8 9 8 9 9 9 9 9 9 9 9 10
4 5 5 5 5 5 4 4 4 5 6 6 5 4 5 5 4 5 5 5 5 7 7 6 7 7 7 8 8 8 9 9 9 9 9 9 9 10
5 5 6 4 4 5 5 5 5 5 5 6 6 5 5 5 5 5 5 5 4 4 6 7 7 7 7 7 7 8 8 8 8 9 9 9 9 9
6 5 5 5 5 4 5 5 5 5 5 6 6 5 5 4 4 5 5 4 5 4 7 8 8 8 8 8 8 8 8 8 8 8 8 8 8 8
5 5 5 5 5 5 5 5 5 5 5 5 5 5 4 3 3 4 4 3 4 4 3 4 6 8 9 9 9 9 9 9 8 8 8 8 8 8
5 4 4 3 4 5 5 6 6 5 5 5 5 5 4 3 4 4 4 4 3 3 3 4 5 5 7 9 10 10 10 10 9 9 9 9 9 9
4 4 4 3 3 5 6 7 7 7 6 5 5 5 5 5 4 5 4 4 4 2 3 4 4 5 5 5 7 9 10 10 9 10 9 9 9 9
5 5 4 4 5 5 4 6 6 7 8 7 7 6 6 6 6 6 5 5 5 3 4 5 4 5 4 4 8 9 9 9 9 9 10 10 10 10
4 4 5 5 6 6 7 6 5 5 5 6 6 7 7 6 6 6 7 6 6 5 5 5 5 5 4 3 9 10 10 10 9 9 9 9 10 10
4 4 4 5 5 6 7 7 6 6 5 6 7 8 8 8 7 6 6 6 6 5 5 5 5 4 4 5 6 12 12 11 11 10 10 10 9 9
3 3 2 3 5 6 6 7 7 7 7 5 5 6 8 8 9 8 7 6 6 5 3 4 5 4 4 4 4 6 8 10 12 12 12 12 11 8
4 4 3 2 5 6 7 7 8 8 7 7 6 6 5 5 6 6 7 6 6 6 4 4 5 5 5 4 4 5 6 6 8 9 12 14 13 11
5 5 4 4 7 9 7 7 8 8 7 6 5 6 5 5 4 5 6 7 7 8 7 7 6 5 5 5 5 4 5 6 6 7 7 11 13 14
5 6 8 10 10 9 9 9 8 7 6 6 5 6 5 5 5 5 6 6 8 9 9 9 8 7 7 7 6 6 5 5 6 6 6 7 8 9
5 6 9 12 10 9 7 6 5 4 5 6 6 6 5 5 6 5 5 5 6 6 7 9 9 9 8 8 7 7 6 5 5 6 6 6 7 8
7 7 6 5 5 4 4 4 4 4 4 5 6 6 6 6 5 4 5 6 6 6 5 5 7 7 9 8 8 8 7 6 5 5 6 7 7 7
7 6 5 6 6 5 5 5 4 4 5 5 6 6 6 6 6 5 5 5 6 6 6 5 5 5 6 8 9 9 7 6 5 5 6 7 7 7
6 5 5 5 6 6 6 6 6 6 5 6 6 6 6 6 6 6 6 6 6 6 6 5 5 6 7 7 7 10 8 6 5 6 6 7 7 6
4 5 6 6 5 5 6 6 6 6 5 5 5 6 6 6 7 7 6 7 7 7 7 5 5 5 6 7 7 6 11 9 7 7 7 6 5 4
6 5 5 6 6 5 5 6 6 6 6 6 5 6 6 6 7 7 7 7 7 7 7 6 4 5 6 6 8 7 6 10 8 6 7 6 6 5
6 6 5 5 6 6 6 6 6 6 6 6 6 6 7 6 7 8 7 7 7 7 8 6 5 5 6 7 8 8 6 5 8 9 8 7 6 6
6 6 5 5 5 5 6 7 7 6 6 6 7 7 7 7 6 6 7 7 7 7 7 6 5 5 6 7 8 7 8 7 5 5 6 7 9 9
Wind_Direction
272 269 272 279 274 276 271 271 280 287 292 298 291 290 288 286 274 271 269 234 220 230 236 239 244 239 239 238 231 229 227 229 232 232 230 228 226 223
284 288 285 285 284 274 269 270 274 278 287 298 297 298 304 294 270 273 268 220 222 224 227 230 233 234 234 233 233 228 224 223 227 228 226 227 226 222
283 277 279 284 282 281 273 271 273 273 275 286 291 291 286 284 280 273 264 254 235 203 209 216 224 228 229 230 227 226 223 221 222 224 225 225 223 220
288 289 287 284 281 281 282 280 280 276 272 281 286 288 286 281 273 274 272 262 258 198 200 213 221 224 225 225 223 220 215 215 219 219 219 216 216 217
292 289 289 289 285 285 285 286 283 278 271 271 280 288 284 277 273 266 271 269 260 224 203 209 217 222 222 221 217 215 214 214 214 211 214 215 215 217
292 289 288 292 294 293 288 285 284 285 276 272 276 277 277 275 266 266 270 257 252 249 237 226 214 213 217 216 214 212 211 211 212 211 211 212 214 215
302 298 302 309 313 300 300 304 297 287 282 277 277 279 279 287 276 271 271 273 262 244 247 240 224 225 213 210 211 211 210 209 210 210 210 210 211 214
314 310 299 273 268 252 261 278 288 290 294 291 287 288 291 284 281 277 277 272 267 241 252 256 245 244 236 226 192 191 201 206 207 209 210 212 211 212
316 312 313 321 304 297 266 243 254 256 262 280 291 293 295 299 298 286 278 277 279 281 271 269 254 252 243 220 170 183 195 203 206 209 211 212 213 211
311 309 309 310 324 319 302 293 286 278 263 256 274 282 288 295 290 284 287 277 268 257 250 263 259 252 249 222 180 190 198 202 206 210 213 214 214 214
313 316 312 314 339 322 299 295 293 289 259 241 254 268 277 274 274 275 267 266 267 261 233 248 262 261 252 236 197 190 199 204 208 211 214 215 213 211
308 301 311 309 321 320 303 297 294 299 305 295 262 249 252 247 232 241 257 263 266 268 242 240 258 260 255 234 217 195 203 207 210 214 213 209 203 213
312 312 336 329 297 294 287 283 288 295 293 287 284 276 259 251 239 228 238 254 266 268 263 246 260 257 259 261 240 220 213 208 206 212 212 208 202 213
305 311 324 313 294 282 272 274 281 280 275 277 279 283 282 277 270 260 245 246 253 262 272 271 268 268 266 265 262 237 224 223 221 217 208 193 204 216
298 304 292 284 282 268 247 253 261 267 279 282 281 286 290 288 281 268 255 247 251 250 249 248 251 256 259 262 263 257 248 234 227 225 216 203 204 205
287 283 259 255 254 266 272 254 255 277 289 291 294 290 287 281 274 274 273 262 258 255 239 238 241 246 251 257 261 258 248 239 229 229 227 222 215 214
315 293 295 303 303 304 305 304 296 279 270 278 286 291 295 292 286 279 274 273 271 274 264 237 232 236 245 253 257 256 255 250 239 232 231 233 226 220
286 289 306 314 316 319 316 312 308 301 296 292 291 292 296 296 294 289 280 276 274 272 268 259 241 239 246 243 233 250 249 244 241 232 236 241 237 226
266 296 310 317 320 323 321 317 315 314 309 299 299 302 304 305 303 300 292 287 286 282 274 262 251 246 256 262 239 220 244 248 244 241 237 240 246 242
303 318 322 324 322 323 321 319 316 314 313 309 308 307 305 303 300 298 297 296 295 291 286 275 260 256 262 274 278 245 219 237 242 246 244 239 243 236
335 333 333 328 324 323 320 317 316 318 322 317 314 316 312 307 305 305 302 298 289 286 284 280 268 251 265 269 269 262 237 216 231 242 249 247 242 235
334 332 330 323 319 322 323 320 321 326 325 319 321 321 317 312 311 308 305 299 294 292 293 288 272 256 260 262 268 271 263 238 221 229 246 256 258 248
336 332 328 323 322 323 324 327 329 331 332 332 327 321 317 314 313 307 304 300 298 297 294 292 292 283 275 270 271 272 268 253 237 223 224 219 225 241